Find Local Weather

World > North America > United States > Colorado

Harts Basin, Colorado Regional Weather

Lat: 38.83N, Lon: 107.95W
Wx Zone: COZ011
Warning FLW WEATHER ALERT - (More Info. Click Here) Warning
Feedback
Expires:201811182100;;504052
ASUS45 KBOU 182010
RWRCO 

WEATHER ROUNDUP FOR COLORADO
NATIONAL WEATHER SERVICE DENVER/BOULDER CO
100 PM MST SUN NOV 18 2018

NOTE: "FAIR" INDICATES FEW OR NO CLOUDS BELOW 12000 FEET WITH NO
SIGNIFICANT WEATHER AND/OR OBSTRUCTIONS TO VISIBILITY.


COZ006>008-011-182100-
...WEST CENTRAL VALLEYS...
  
CITY           SKY/WX    TMP DP  RH WIND       PRES   REMARKS
GRAND JUNCTION FAIR      46  11  24 CALM      30.21F                  
MONTROSE       FAIR      41  17  38 VRB5      30.23F                  
EAGLE          FAIR      40  15  36 CALM      30.20F                  
RIFLE          FAIR      42  17  36 CALM      30.22F                  
DELTA          FAIR      47  25  42 CALM      30.22F                  
NUCLA          FAIR      45  14  29 CALM      30.21F                  
$$


SKY/WX - Weather  TMP - Temperature  DP - Dew Point  RH - Relative Humidity
WIND - Wind Direction/Speed PRES - Barometric Pressure